TimeCST,TemperatureF,Dew PointF,Humidity,Sea Level PressureIn,VisibilityMPH,Wind Direction,Wind SpeedMPH,Gust SpeedMPH,PrecipitationIn,Events,Conditions,WindDirDegrees,DateUTC
12:53 AM,19.0,12.0,74,30.18,10.0,East,5.8,-,N/A,,Clear,100,2012-12-27 06:53:00
1:53 AM,19.0,12.0,74,30.18,10.0,East,3.5,-,N/A,,Clear,100,2012-12-27 07:53:00
2:53 AM,18.0,12.0,78,30.18,10.0,ENE,4.6,-,N/A,,Clear,70,2012-12-27 08:53:00
3:53 AM,18.0,12.9,81,30.16,10.0,SE,5.8,-,N/A,,Clear,130,2012-12-27 09:53:00
4:53 AM,19.9,15.1,81,30.14,10.0,ESE,5.8,-,N/A,,Mostly Cloudy,120,2012-12-27 10:53:00
5:53 AM,19.9,15.1,81,30.14,10.0,ENE,4.6,-,N/A,,Overcast,70,2012-12-27 11:53:00
6:53 AM,21.0,16.0,81,30.08,10.0,East,12.7,-,N/A,,Overcast,80,2012-12-27 12:53:00
7:53 AM,19.9,15.1,81,30.10,10.0,ENE,9.2,-,N/A,,Partly Cloudy,60,2012-12-27 13:53:00
8:53 AM,23.0,17.1,78,30.09,10.0,East,11.5,-,N/A,,Overcast,100,2012-12-27 14:53:00
9:53 AM,25.0,18.0,75,30.10,10.0,East,10.4,-,N/A,,Overcast,100,2012-12-27 15:53:00
10:53 AM,30.0,19.0,64,30.08,10.0,ESE,13.8,-,N/A,,Scattered Clouds,120,2012-12-27 16:53:00
11:53 AM,32.0,19.9,61,30.03,10.0,SSE,13.8,-,N/A,,Partly Cloudy,150,2012-12-27 17:53:00
12:53 PM,35.1,21.0,57,29.98,10.0,SSE,11.5,-,N/A,,Clear,150,2012-12-27 18:53:00
1:53 PM,37.0,21.0,52,29.96,10.0,South,12.7,-,N/A,,Scattered Clouds,180,2012-12-27 19:53:00
2:53 PM,37.0,21.9,54,29.94,10.0,SE,11.5,-,N/A,,Overcast,130,2012-12-27 20:53:00
3:53 PM,36.0,21.9,57,29.95,10.0,SE,8.1,-,N/A,,Clear,130,2012-12-27 21:53:00
4:53 PM,33.1,21.9,64,29.96,10.0,ESE,4.6,-,N/A,,Partly Cloudy,110,2012-12-27 22:53:00
6:53 PM,34.0,24.1,67,29.96,10.0,Calm,Calm,-,N/A,,Overcast,0,2012-12-28 00:53:00
7:53 PM,33.1,24.1,70,29.97,10.0,Calm,Calm,-,N/A,,Overcast,0,2012-12-28 01:53:00
8:53 PM,33.8,24.8,70,29.94,10.0,Calm,Calm,-,N/A,,Overcast,0,2012-12-28 02:53:00
9:53 PM,33.1,24.1,70,29.98,10.0,WSW,3.5,-,N/A,,Overcast,240,2012-12-28 03:53:00
10:53 PM,32.0,25.0,75,29.98,10.0,Calm,Calm,-,N/A,,Overcast,0,2012-12-28 04:53:00
11:53 PM,32.0,25.0,75,29.99,10.0,Calm,Calm,-,N/A,,Overcast,0,2012-12-28 05:53:00